Simultaneous Nadir Overpasses (SNOs) Predictions

Prediction of SNOs between LANDSAT-8 and NOAA-19 Satellite Orbit:

Table of predicted SNOs for the next 14.0 days since TLE Epoch: 5/16/2020
Index Date (LANDSAT-8) Time (LANDSAT-8) Lat,Lon (LANDSAT-8) SZA (LANDSAT-8 ) Date (NOAA-19) Time (NOAA-19) Lat,Lon (NOAA-19) SZA (NOAA-19 ) Distance(km) Time Diff (sec)
1 05/17/2020 16:29:20 -79.71, 137.80 118.77 05/17/2020 16:29:16 -79.68, 137.88 118.78 3.01 4
2 05/19/2020 22:03:06 79.69,-125.75 60.74 05/19/2020 22:02:41 79.71,-125.69 60.75 2.44 25
3 05/19/2020 22:52:34 -79.67, 41.71 119.31 05/19/2020 22:53:35 -79.69, 41.84 119.26 3.35 61
4 05/22/2020 03:36:53 -79.72, -29.00 119.68 05/22/2020 03:35:54 -79.71, -28.89 119.69 2.49 59
5 05/22/2020 04:26:19 79.71, 138.58 60.31 05/22/2020 04:26:59 79.70, 138.48 60.30 2.46 40
6 05/24/2020 10:00:07 -79.72,-124.77 120.10 05/24/2020 10:00:13 -79.72,-124.94 120.12 3.45 6
7 05/26/2020 15:33:54 79.73, -28.15 59.53 05/26/2020 15:33:36 79.72, -28.24 59.50 2.19 18
8 05/26/2020 16:23:21 -79.71, 139.34 120.51 05/26/2020 16:24:30 -79.70, 139.28 120.51 2.18 69
9 05/28/2020 21:07:42 -79.75, 68.55 120.81 05/28/2020 21:06:49 -79.72, 68.52 120.86 3.55 53




NCC Satellite Simultaneous Nadir Overpasses (SNOs) Prediction Service
